This is the latest recevied weather packets stored in our database for station/object NK2J. If no packets are shown the sender has not sent any weather packets the latest 10 day(s).
| Time | Temp. | Humidity | Pressure | Rain* | Wind** | Luminosity | Snow |
|---|---|---|---|---|---|---|---|
| 1777769961 | 31.67° C | 15% | 1011.7 hPa | 0 mm | - | 57 W/m² | - |
| 1777769658 | 31.67° C | 17% | 1011.7 hPa | 0 mm | - | 59 W/m² | - |
| 1777769354 | 32.22° C | 16% | 1011.6 hPa | 0 mm | - | 65 W/m² | - |
| 1777769051 | 32.22° C | 16% | 1011.7 hPa | 0 mm | - | 82 W/m² | - |
| 1777768749 | 32.22° C | 16% | 1011.8 hPa | 0 mm | - | 145 W/m² | - |
| 1777768445 | 32.22° C | 15% | 1011.7 hPa | 0 mm | - | 97 W/m² | - |
| 1777768143 | 32.78° C | 15% | 1011.7 hPa | 0 mm | - | 131 W/m² | - |
| 1777767840 | 32.22° C | 16% | 1011.7 hPa | 0 mm | - | 131 W/m² | - |
| 1777767536 | 32.22° C | 16% | 1011.6 hPa | 0 mm | - | 183 W/m² | - |
| 1777767232 | 32.78° C | 16% | 1011.7 hPa | 0 mm | - | 210 W/m² | - |
| 1777766930 | 32.22° C | 16% | 1011.7 hPa | 0 mm | - | 228 W/m² | - |
| 1777766627 | 31.67° C | 17% | 1011.8 hPa | 0 mm | - | 192 W/m² | - |
| 1777766324 | 32.22° C | 16% | 1011.8 hPa | 0 mm | - | 163 W/m² | - |
| 1777766021 | 32.78° C | 15% | 1011.9 hPa | 0 mm | - | 154 W/m² | - |
| 1777765718 | 32.22° C | 17% | 1011.9 hPa | 0 mm | - | 286 W/m² | - |
| 1777765415 | 32.22° C | 17% | 1011.8 hPa | 0 mm | - | 236 W/m² | - |
| 1777765112 | 32.78° C | 17% | 1012 hPa | 0 mm | - | 240 W/m² | - |
| 1777764808 | 32.78° C | 16% | 1012 hPa | 0 mm | - | 171 W/m² | - |
| 1777764505 | 32.78° C | 17% | 1011.9 hPa | 0 mm | - | 226 W/m² | - |
| 1777764201 | 32.78° C | 17% | 1012 hPa | 0 mm | - | 360 W/m² | - |
| 1777763898 | 32.78° C | 16% | 1011.7 hPa | 0 mm | - | 367 W/m² | - |
| 1777763596 | 32.78° C | 17% | 1011.8 hPa | 0 mm | - | 419 W/m² | - |
| 1777763294 | 32.22° C | 17% | 1011.9 hPa | 0 mm | - | 440 W/m² | - |
| 1777762991 | 32.22° C | 17% | 1012 hPa | 0 mm | - | 415 W/m² | - |
| 1777762688 | 32.78° C | 18% | 1012.1 hPa | 0 mm | - | 213 W/m² | - |
* Rain latest hour (hover to see other rain measurements)
** Current wind speed in m/s (hover to see current wind gust speed)